RH
70 65 64 61 60 61 65 73 76 80 85 73 67 62 59 59 68 84 96 70 68 60 58 71 73 78 80 82 78 77 95 97 91 80 71 62 65 53 46 50 45 46 44 41 46
70 71 67 65 63 62 62 69 74 77 89 74 66 64 65 68 88 95 68 59 58 65 74 76 82 80 90 89 88 91 96 81 70 68 68 58 64 63 68 60 60 55 47 52 54
69 70 73 72 65 64 63 66 76 79 82 72 68 67 70 77 87 73 57 61 60 55 69 72 66 78 90 93 94 84 94 72 64 64 68 66 66 61 65 71 62 63 52 51 56
73 73 71 76 79 66 64 67 80 77 80 70 68 68 71 87 54 53 61 63 52 64 72 77 81 87 94 95 84 97 85 80 66 61 65 69 61 64 64 61 47 50 52 59 61
81 76 80 73 81 77 66 66 76 88 73 74 71 73 85 95 82 51 57 54 60 70 80 82 87 91 92 82 71 85 74 66 66 68 70 66 74 69 64 50 48 51 57 60 62
77 80 81 73 74 85 68 66 72 86 87 72 74 75 86 62 46 46 56 59 62 71 75 76 80 78 80 79 79 73 75 75 71 73 72 79 75 72 60 50 55 58 62 61 63
68 66 73 75 69 80 74 66 74 89 78 70 75 74 87 58 53 50 50 60 58 65 72 68 67 78 82 92 80 80 86 80 76 75 81 76 89 83 59 53 58 58 57 60 60
72 71 66 72 71 77 71 73 78 88 79 72 73 80 75 59 63 53 52 48 51 64 65 69 74 80 81 78 86 88 93 94 67 71 70 72 84 57 51 63 65 61 60 60 58
73 76 74 67 72 72 70 76 79 83 77 73 88 86 67 52 53 48 41 46 66 65 65 68 82 85 85 94 91 87 92 87 83 65 67 74 86 62 59 64 65 57 56 58 63
76 77 75 73 73 77 72 76 76 80 75 68 69 85 57 55 48 49 44 58 67 74 75 86 92 94 91 96 97 90 94 68 84 70 66 80 85 70 62 68 66 68 62 63 61
73 72 73 73 74 68 82 87 84 90 80 76 76 71 60 51 49 52 50 56 65 77 95 88 97 93 84 85 89 84 95 86 82 66 75 84 83 78 81 74 74 64 69 71 81
76 70 70 71 72 75 89 84 80 77 84 77 72 69 61 56 59 59 53 68 77 92 77 87 95 71 66 70 74 85 83 91 75 64 69 69 81 75 78 85 87 88 91 92 89
75 73 72 71 69 83 88 97 87 85 82 68 71 70 63 55 61 66 58 69 79 86 86 92 71 57 54 59 71 80 86 82 78 67 68 76 80 81 64 67 67 74 80 89 88
74 76 76 69 75 82 91 84 85 79 92 82 66 61 56 62 68 53 59 69 75 82 74 77 60 59 61 64 70 89 65 67 69 85 91 68 96 84 73 75 74 77 82 92 96
79 73 75 69 78 93 86 89 82 68 94 64 67 54 59 70 65 65 60 69 86 76 68 58 64 67 69 61 66 75 64 74 79 90 90 74 96 75 81 92 84 88 85 95 97
80 74 75 84 92 89 88 85 74 82 96 80 65 71 66 63 60 60 63 66 64 70 64 66 57 62 60 55 63 62 78 81 87 90 97 90 89 92 96 87 84 80 82 92 98
77 81 85 82 93 90 91 85 89 93 70 78 75 74 74 64 61 62 64 72 83 83 82 70 59 54 56 70 64 70 86 96 94 98 96 82 86 100 68 60 68 90 86 92 93
80 81 86 80 96 95 87 85 91 78 86 69 69 68 69 62 63 64 70 87 74 79 92 93 80 59 56 67 76 82 95 97 96 96 97 77 97 96 66 53 57 72 77 87 91
76 93 95 88 92 93 88 96 91 83 78 74 65 76 69 59 66 65 82 88 84 84 95 92 80 57 56 63 71 78 96 92 99 85 93 96 88 69 72 62 60 59 73 90 92
95 96 92 86 94 92 93 90 86 73 72 69 68 67 77 66 68 73 85 79 81 80 81 74 90 62 64 59 58 72 71 89 94 93 99 94 98 95 88 75 69 66 66 68 85
94 92 81 90 89 89 97 90 79 66 70 65 69 66 68 69 70 82 79 70 70 75 72 82 73 62 68 73 82 69 81 88 90 91 96 99 99 93 81 72 84 71 65 61 63
94 89 81 90 90 96 95 82 72 70 66 60 60 60 65 64 75 81 78 77 64 73 72 76 78 96 86 71 58 65 74 92 94 91 84 94 99 82 69 67 74 73 71 66 63
95 95 84 86 98 97 78 70 71 69 69 64 60 60 52 61 64 81 76 62 62 71 81 76 86 90 55 51 56 69 65 71 88 91 95 94 95 65 72 68 78 77 77 76 69
92 89 90 95 96 94 91 74 71 60 63 59 56 52 56 57 59 74 73 63 57 59 64 64 91 77 72 68 74 82 67 64 81 94 94 92 87 88 88 77 86 88 83 81 79
96 98 95 98 89 93 87 76 73 68 60 59 61 61 63 57 59 69 64 60 54 62 69 59 78 88 73 72 72 71 69 58 83 87 86 81 89 91 92 91 91 92 84 82 83
87 92 96 95 92 85 83 85 73 70 65 59 63 61 60 66 72 66 68 76 72 67 75 78 90 93 84 72 82 80 64 63 58 68 73 82 83 86 90 92 93 93 91 92 92
97 94 91 84 88 87 88 84 71 68 63 61 61 65 60 60 56 70 76 78 81 82 75 85 95 94 74 81 74 54 58 59 72 76 75 90 76 89 86 91 94 94 94 94 92
Wind_Speed
15 14 13 13 13 13 14 14 12 9 6 5 5 2 3 4 4 2 6 8 8 10 8 4 2 3 2 2 3 2 0 5 6 3 4 2 3 4 4 10 11 8 13 13 15
20 17 14 11 10 13 13 14 14 16 10 6 5 4 1 2 1 8 10 11 9 14 6 5 3 4 1 2 1 3 4 8 7 3 7 13 10 12 5 14 16 19 13 11 13
19 20 17 13 9 10 12 13 17 12 11 8 5 3 4 2 2 6 4 14 14 15 7 4 2 3 4 2 5 5 6 2 13 11 7 12 16 8 13 21 22 17 17 7 10
23 22 21 13 11 8 11 13 14 5 9 6 7 7 5 2 1 3 12 13 13 9 6 4 2 3 4 6 5 4 9 10 14 13 7 13 13 16 13 28 21 18 17 10 12
23 23 20 20 9 10 10 11 13 1 5 5 7 7 4 3 6 6 12 10 6 6 7 5 4 3 5 4 5 9 12 13 14 15 18 16 20 22 19 24 20 18 17 21 15
20 19 15 22 11 9 7 10 11 6 7 7 9 8 3 1 2 4 7 7 5 5 5 5 6 6 6 4 6 4 9 14 12 19 15 15 24 6 28 20 15 15 18 22 15
23 20 16 16 8 6 10 9 8 7 7 6 9 3 3 5 3 5 5 4 5 6 5 4 6 3 1 5 5 6 11 12 15 14 8 6 13 16 28 20 19 19 18 20 17
26 19 18 11 10 3 9 9 5 6 5 7 7 3 2 3 0 3 2 3 4 4 2 4 4 3 3 5 5 4 3 4 5 2 5 6 15 15 11 11 19 19 16 18 18
23 20 11 8 10 3 7 9 6 9 7 8 5 2 3 6 3 5 5 3 4 3 3 3 2 2 2 5 4 2 6 5 8 4 3 7 12 20 8 7 13 17 18 17 15
22 19 5 7 5 7 8 6 12 7 5 5 2 3 4 3 2 1 3 5 3 4 0 3 2 2 3 4 3 4 5 7 7 6 8 10 20 21 16 23 23 20 18 15 18
20 16 10 7 6 6 4 4 6 5 4 3 0 1 3 8 2 2 2 3 3 2 4 3 2 6 11 9 9 10 9 11 12 15 8 8 12 12 22 21 15 13 13 12 11
20 16 10 10 5 6 3 4 4 3 6 4 1 3 4 2 3 1 4 3 3 5 2 3 9 13 12 10 10 12 12 11 10 7 5 11 4 12 17 17 14 11 10 12 9
16 13 10 7 5 5 5 5 4 2 6 4 1 1 4 1 2 2 4 1 5 4 5 7 10 8 2 3 3 3 5 5 5 8 5 5 2 17 22 18 24 23 19 11 18
15 15 13 5 7 4 4 6 4 3 6 8 5 3 3 2 3 1 2 2 3 3 3 6 4 3 4 4 4 4 6 4 7 6 4 3 3 12 22 19 25 27 28 22 8
14 13 10 9 4 4 5 6 4 4 9 8 5 3 3 1 3 2 0 0 4 4 4 7 4 4 3 5 2 8 5 7 2 1 3 6 2 10 16 20 23 23 23 19 8
17 13 7 5 4 1 6 4 4 9 4 5 3 4 4 2 2 3 2 1 3 3 1 6 5 2 3 10 3 6 3 1 2 3 2 6 3 6 16 20 20 22 25 26 11
15 15 7 3 3 8 4 4 7 8 2 4 1 2 2 3 4 2 2 6 4 6 6 7 6 7 3 7 4 8 3 3 5 2 2 7 6 3 16 18 15 19 21 19 20
9 9 5 4 4 5 4 6 11 2 3 3 2 2 2 2 2 5 3 6 4 4 2 4 9 7 8 3 4 5 3 4 3 2 1 6 6 4 13 14 15 15 18 19 19
7 4 3 5 5 3 5 8 5 4 2 2 4 3 4 2 1 4 4 4 3 4 2 4 5 5 4 4 3 4 4 2 2 3 5 3 2 4 16 18 18 18 18 19 22
3 4 4 5 3 3 6 7 3 1 2 1 1 1 1 5 2 4 5 2 5 2 1 2 3 2 7 6 5 3 3 2 3 4 3 2 1 5 13 17 16 18 18 16 15
4 5 5 7 3 6 5 3 1 2 1 1 1 3 2 3 3 3 3 2 4 7 2 1 4 7 5 6 5 7 5 4 2 2 5 3 2 5 7 10 10 12 13 14 15
2 4 5 6 7 3 3 1 1 4 5 3 3 3 2 3 4 2 2 2 7 4 3 3 3 1 4 5 3 1 3 2 4 3 3 4 1 7 7 7 7 10 11 11 11
3 3 4 5 5 5 7 6 3 6 4 4 3 3 3 2 1 2 3 3 5 4 2 1 3 4 9 7 5 5 6 2 3 2 2 4 2 1 7 6 8 8 10 10 12
4 4 6 6 1 3 6 6 6 6 4 3 4 3 2 4 5 1 3 2 6 4 7 4 3 5 6 6 3 5 6 3 3 4 2 3 2 3 6 8 7 10 9 9 10
5 2 3 2 3 3 2 4 7 9 6 8 4 6 3 1 1 3 3 6 2 8 4 4 4 1 4 5 3 5 6 6 3 4 5 3 3 2 3 4 7 6 7 9 11
4 4 3 3 4 3 4 4 5 4 5 7 5 6 7 3 3 3 2 1 2 6 4 4 2 2 4 3 3 4 5 5 4 2 3 3 5 4 2 1 3 6 7 7 7
2 1 3 2 1 2 1 1 3 1 2 4 4 3 5 4 4 3 1 2 2 3 3 3 3 4 5 5 5 6 4 4 3 4 4 3 4 3 4 5 2 2 4 5 6
Wind_Direction
304 308 314 324 332 330 321 320 331 311 238 223 231 212 272 280 311 317 243 225 189 210 136 108 74 117 66 92 98 65 105 248 257 226 249 205 289 187 263 262 265 236 238 269 286
314 304 300 308 325 330 328 319 321 301 200 194 224 172 222 27 291 248 227 224 196 196 117 154 172 140 148 146 121 151 222 238 195 240 279 289 287 291 279 281 274 280 258 239 267
321 315 314 294 309 326 332 328 323 281 179 181 182 164 110 78 331 255 188 200 190 186 148 161 142 176 211 132 189 186 233 244 278 282 289 291 285 267 273 276 254 269 281 251 266
327 324 321 330 298 322 339 339 338 171 165 158 175 134 117 99 96 296 148 190 167 122 116 148 148 210 216 212 191 226 242 254 273 267 276 263 276 271 241 254 268 261 266 266 254
332 326 326 319 303 312 340 345 340 34 164 158 140 120 119 90 254 282 157 176 110 131 159 164 176 218 225 215 217 248 259 259 260 265 262 267 258 257 269 255 259 263 259 260 251
324 322 318 308 331 300 333 341 345 312 172 147 137 126 115 32 258 252 132 119 139 143 167 194 208 231 288 252 222 247 253 263 268 266 268 261 266 244 264 267 256 252 251 255 242
328 319 310 298 339 307 309 338 349 77 109 127 140 126 108 225 8 11 108 183 168 171 161 219 247 243 256 293 263 266 281 289 266 262 257 226 266 229 251 274 263 258 254 256 250
335 320 316 323 313 180 308 333 316 124 119 134 124 70 242 254 90 310 185 238 209 191 157 190 163 228 222 311 272 233 196 290 286 200 244 130 282 279 273 256 263 261 253 258 259
344 333 309 335 333 42 352 338 157 137 119 109 68 72 321 316 150 219 183 166 139 124 200 96 60 231 324 243 269 285 272 258 295 260 240 203 289 283 309 292 271 272 263 261 262
352 355 15 80 57 351 1 99 103 94 83 77 34 69 341 342 327 131 164 140 131 112 268 202 188 249 248 228 253 273 262 279 278 268 291 269 266 288 326 319 287 277 260 264 274
7 13 14 97 96 51 47 97 52 43 47 72 60 43 5 307 294 15 140 111 86 141 212 214 230 244 259 229 241 257 272 276 277 278 294 268 282 3 342 323 307 282 258 260 257
9 26 47 99 85 66 97 76 63 132 86 216 350 307 262 248 349 336 114 135 139 232 217 226 245 250 255 264 251 263 272 272 268 292 282 290 305 19 329 337 321 341 296 263 241
21 39 60 81 88 58 62 43 335 63 94 45 120 23 290 328 316 263 128 170 229 241 222 221 251 296 277 306 293 281 251 268 273 324 293 329 306 6 339 350 354 3 347 299 242
36 35 25 352 42 330 56 325 356 104 81 355 356 356 337 360 318 320 175 201 296 256 287 230 263 284 323 285 224 290 268 308 311 19 302 45 284 1 341 342 1 355 347 336 195
13 31 38 58 145 53 298 322 333 60 73 317 328 291 316 344 300 10 229 169 253 279 75 265 304 326 300 258 207 239 259 255 277 294 313 323 88 352 346 352 358 349 333 341 135
20 26 28 21 28 13 313 323 44 44 53 309 317 355 347 339 328 320 359 40 261 309 332 255 272 271 259 301 246 303 312 66 76 134 28 304 21 341 352 335 338 346 358 2 3
24 35 36 21 350 321 326 37 48 60 287 307 308 323 320 336 342 2 56 21 38 17 1 328 320 310 2 329 329 5 30 30 19 39 99 323 51 42 342 342 352 342 356 1 6
11 30 345 54 315 338 42 50 65 234 209 267 266 308 26 348 353 8 44 9 8 41 57 41 342 346 332 323 286 320 26 130 138 96 95 356 23 2 346 353 7 2 1 1 12
27 352 5 322 346 30 80 52 156 211 260 338 346 54 344 337 234 77 15 326 289 25 35 30 296 325 330 306 11 331 39 261 76 58 70 338 322 287 348 360 5 8 14 12 2
70 356 289 303 319 77 74 100 104 259 323 79 202 329 11 331 15 59 13 323 320 -0 189 319 341 333 295 6 343 68 332 70 2 74 82 3 21 11 348 351 1 10 12 14 13
44 13 271 328 78 44 88 97 347 351 53 116 86 19 29 355 18 20 344 300 359 312 33 52 114 301 20 8 320 348 11 19 78 26 146 145 37 339 340 351 348 6 9 14 18
59 34 314 356 44 7 43 67 7 353 11 19 105 81 56 28 20 356 323 239 344 298 1 346 120 40 262 287 304 102 4 101 108 290 47 142 85 309 323 338 21 12 6 12 18
61 278 323 64 58 345 326 357 19 21 19 10 40 28 65 65 62 344 314 297 345 26 357 339 22 21 344 349 3 31 329 11 136 42 16 106 231 123 341 1 3 17 7 12 8
50 3 355 43 131 105 4 350 347 354 19 25 7 41 61 51 27 90 320 312 337 347 28 85 87 143 173 213 229 318 324 357 79 84 219 234 255 313 350 352 354 355 -0 360 8
21 91 191 275 16 48 23 1 355 355 355 20 20 25 300 48 37 15 329 324 318 353 34 82 116 221 226 249 268 252 280 327 81 189 127 236 228 239 295 318 331 328 347 6 5
138 143 11 2 309 82 15 17 17 330 21 348 45 356 7 60 22 316 329 340 289 330 40 359 160 104 308 322 319 280 272 271 249 197 250 240 261 176 251 295 324 345 352 357 350
185 44 106 287 336 54 288 13 19 349 74 70 326 341 32 356 330 343 85 68 329 326 -0 47 100 49 284 340 340 359 240 207 265 206 181 196 230 182 191 200 241 309 336 334 344